TimeCDT,TemperatureF,Dew PointF,Humidity,Sea Level PressureIn,VisibilityMPH,Wind Direction,Wind SpeedMPH,Gust SpeedMPH,PrecipitationIn,Events,Conditions,WindDirDegrees,DateUTC
12:15 AM,60.8,55.4,82,30.20,10.0,Calm,Calm,-,N/A,,Unknown,0,2013-05-15 05:15:00
12:35 AM,59.0,55.4,88,30.20,7.0,Calm,Calm,-,N/A,,Unknown,0,2013-05-15 05:35:00
12:55 AM,59.0,55.4,88,30.19,10.0,Calm,Calm,-,N/A,,Unknown,0,2013-05-15 05:55:00
1:15 AM,59.0,55.4,88,30.19,5.0,Calm,Calm,-,N/A,,Mist,0,2013-05-15 06:15:00
1:35 AM,59.0,55.4,88,30.19,5.0,Calm,Calm,-,N/A,,Mist,0,2013-05-15 06:35:00
1:55 AM,57.2,53.6,88,30.19,1.0,Calm,Calm,-,N/A,,Mist,0,2013-05-15 06:55:00
2:15 AM,55.4,53.6,94,30.18,4.0,Calm,Calm,-,N/A,,Mist,0,2013-05-15 07:15:00
2:35 AM,55.4,53.6,94,30.18,5.0,Calm,Calm,-,N/A,,Mist,0,2013-05-15 07:35:00
2:55 AM,55.4,53.6,94,30.18,3.0,Calm,Calm,-,N/A,,Mist,0,2013-05-15 07:55:00
3:15 AM,55.4,53.6,94,30.18,10.0,Calm,Calm,-,N/A,,Unknown,0,2013-05-15 08:15:00
3:35 AM,55.4,53.6,94,30.19,10.0,Calm,Calm,-,N/A,,Unknown,0,2013-05-15 08:35:00
3:55 AM,55.4,53.6,94,30.19,10.0,Calm,Calm,-,N/A,,Unknown,0,2013-05-15 08:55:00
4:15 AM,55.4,51.8,88,30.20,3.0,Calm,Calm,-,N/A,,Mist,0,2013-05-15 09:15:00
4:35 AM,53.6,51.8,94,30.20,0.8,Calm,Calm,-,N/A,,Mist,0,2013-05-15 09:35:00
4:55 AM,55.4,53.6,94,30.20,4.0,East,3.5,-,N/A,,Mist,90,2013-05-15 09:55:00
5:15 AM,55.4,53.6,94,30.20,3.0,Calm,Calm,-,N/A,,Mist,0,2013-05-15 10:15:00
5:35 AM,55.4,53.6,94,30.21,4.0,Calm,Calm,-,N/A,,Mist,0,2013-05-15 10:35:00
5:55 AM,55.4,53.6,94,30.22,2.0,Calm,Calm,-,N/A,,Mist,0,2013-05-15 10:55:00
6:15 AM,55.4,53.6,94,30.22,0.2,Calm,Calm,-,N/A,Fog,Fog,0,2013-05-15 11:15:00
6:35 AM,55.4,53.6,94,30.23,10.0,North,-9999.0,-,N/A,,Unknown,0,2013-05-15 11:35:00
6:55 AM,59.0,55.4,88,30.22,10.0,North,-9999.0,-,N/A,,Unknown,0,2013-05-15 11:55:00
7:15 AM,62.6,60.8,94,30.23,10.0,Calm,Calm,-,N/A,,Unknown,0,2013-05-15 12:15:00
7:35 AM,64.4,60.8,88,30.23,10.0,Calm,Calm,-,N/A,,Unknown,0,2013-05-15 12:35:00
8:15 AM,71.6,62.6,73,30.23,10.0,Calm,Calm,-,N/A,,Unknown,0,2013-05-15 13:15:00
8:35 AM,71.6,60.8,69,30.23,10.0,Calm,Calm,-,N/A,,Unknown,0,2013-05-15 13:35:00
8:55 AM,71.6,60.8,69,30.24,10.0,NNW,3.5,-,N/A,,Unknown,330,2013-05-15 13:55:00
9:15 AM,73.4,60.8,65,30.23,10.0,Calm,Calm,-,N/A,,Unknown,0,2013-05-15 14:15:00
9:35 AM,73.4,59.0,61,30.23,10.0,West,3.5,-,N/A,,Unknown,270,2013-05-15 14:35:00
9:55 AM,75.2,59.0,57,30.23,10.0,Calm,Calm,-,N/A,,Unknown,0,2013-05-15 14:55:00
10:15 AM,77.0,59.0,54,30.23,10.0,WNW,3.5,-,N/A,,Unknown,290,2013-05-15 15:15:00
10:35 AM,77.0,57.2,50,30.23,10.0,North,4.6,-,N/A,,Unknown,10,2013-05-15 15:35:00
10:55 AM,78.8,55.4,44,30.22,10.0,NNW,3.5,-,N/A,,Unknown,340,2013-05-15 15:55:00
11:15 AM,78.8,53.6,42,30.22,10.0,South,3.5,-,N/A,,Unknown,170,2013-05-15 16:15:00
11:35 AM,78.8,60.8,54,30.21,10.0,SSE,6.9,-,N/A,,Unknown,160,2013-05-15 16:35:00
11:55 AM,78.8,55.4,44,30.20,10.0,South,6.9,-,N/A,,Unknown,170,2013-05-15 16:55:00
12:15 PM,78.8,60.8,54,30.20,10.0,South,10.4,-,N/A,,Unknown,190,2013-05-15 17:15:00
12:35 PM,78.8,59.0,51,30.20,10.0,South,8.1,-,N/A,,Unknown,170,2013-05-15 17:35:00
12:55 PM,78.8,57.2,47,30.19,10.0,South,6.9,-,N/A,,Unknown,180,2013-05-15 17:55:00
1:15 PM,78.8,50.0,36,30.19,10.0,SSE,9.2,-,N/A,,Unknown,160,2013-05-15 18:15:00
1:35 PM,78.8,50.0,36,30.19,10.0,SSE,8.1,-,N/A,,Unknown,160,2013-05-15 18:35:00
1:55 PM,78.8,51.8,39,30.18,10.0,South,10.4,-,N/A,,Unknown,190,2013-05-15 18:55:00
2:15 PM,78.8,46.4,32,30.17,10.0,SSE,10.4,-,N/A,,Unknown,160,2013-05-15 19:15:00
2:35 PM,78.8,46.4,32,30.16,10.0,South,10.4,16.1,N/A,,Unknown,180,2013-05-15 19:35:00
2:55 PM,78.8,50.0,36,30.16,10.0,SSE,9.2,-,N/A,,Unknown,160,2013-05-15 19:55:00
3:15 PM,77.0,50.0,39,30.15,10.0,South,11.5,-,N/A,,Unknown,170,2013-05-15 20:15:00
3:35 PM,77.0,51.8,41,30.14,10.0,SSE,12.7,-,N/A,,Unknown,160,2013-05-15 20:35:00
3:55 PM,77.0,50.0,39,30.13,10.0,SSE,10.4,-,N/A,,Unknown,150,2013-05-15 20:55:00
4:15 PM,77.0,50.0,39,30.12,10.0,SSE,11.5,-,N/A,,Unknown,150,2013-05-15 21:15:00
4:35 PM,77.0,50.0,39,30.12,10.0,SSE,10.4,-,N/A,,Unknown,150,2013-05-15 21:35:00
4:55 PM,77.0,50.0,39,30.12,10.0,SSE,10.4,-,N/A,,Unknown,150,2013-05-15 21:55:00
5:15 PM,75.2,51.8,44,30.11,10.0,North,-9999.0,-,N/A,,Unknown,0,2013-05-15 22:15:00
5:35 PM,75.2,50.0,41,30.11,10.0,North,-9999.0,-,N/A,,Unknown,0,2013-05-15 22:35:00
5:55 PM,75.2,50.0,41,30.10,10.0,SE,6.9,-,N/A,,Unknown,140,2013-05-15 22:55:00
6:15 PM,73.4,51.8,47,30.10,10.0,SSE,8.1,-,N/A,,Unknown,150,2013-05-15 23:15:00
6:35 PM,73.4,53.6,50,30.09,10.0,SE,8.1,-,N/A,,Unknown,140,2013-05-15 23:35:00
6:55 PM,71.6,53.6,53,30.09,10.0,SE,4.6,-,N/A,,Unknown,140,2013-05-15 23:55:00
7:15 PM,71.6,53.6,53,30.08,10.0,SE,4.6,-,N/A,,Unknown,140,2013-05-16 00:15:00
7:35 PM,71.6,53.6,53,30.09,10.0,SSE,3.5,-,N/A,,Unknown,160,2013-05-16 00:35:00
7:55 PM,69.8,53.6,56,30.08,10.0,Calm,Calm,-,N/A,,Unknown,0,2013-05-16 00:55:00
8:15 PM,69.8,55.4,60,30.08,10.0,Calm,Calm,-,N/A,,Unknown,0,2013-05-16 01:15:00
8:35 PM,68.0,55.4,64,30.08,10.0,SSE,3.5,-,N/A,,Unknown,150,2013-05-16 01:35:00
8:55 PM,68.0,57.2,68,30.07,10.0,SE,3.5,-,N/A,,Unknown,140,2013-05-16 01:55:00
9:15 PM,69.8,59.0,68,30.08,10.0,Calm,Calm,-,N/A,,Unknown,0,2013-05-16 02:15:00
9:35 PM,69.8,59.0,68,30.08,10.0,SE,3.5,-,N/A,,Unknown,140,2013-05-16 02:35:00
9:55 PM,68.0,59.0,73,30.08,10.0,SE,3.5,-,N/A,,Unknown,140,2013-05-16 02:55:00
10:15 PM,66.2,59.0,78,30.08,10.0,SE,4.6,-,N/A,,Unknown,140,2013-05-16 03:15:00
10:35 PM,64.4,59.0,83,30.07,10.0,SE,4.6,-,N/A,,Unknown,140,2013-05-16 03:35:00
10:55 PM,68.0,60.8,78,30.07,10.0,SE,4.6,-,N/A,,Unknown,140,2013-05-16 03:55:00
11:15 PM,68.0,60.8,78,30.07,10.0,SSE,4.6,-,N/A,,Unknown,150,2013-05-16 04:15:00
11:35 PM,69.8,60.8,73,30.06,10.0,SE,6.9,-,N/A,,Unknown,140,2013-05-16 04:35:00
11:55 PM,69.8,62.6,78,30.06,10.0,SE,6.9,-,N/A,,Unknown,140,2013-05-16 04:55:00